Weather History for Santa Monica, CA

Change the Weather History Date:

Monday, January 7, 2013

  Actual Average Record
Temperature  
Mean Temperature 60 °F -  
Max Temperature 70 °F 64 °F 87 °F (1962)
Min Temperature 51 °F 46 °F 34 °F (1950)
Degree Days  
Heating Degree Days 4    
Growing Degree Days 10 (Base 50)    
Moisture  
Dew Point 33 °F    
Average Humidity 42    
Maximum Humidity 59    
Minimum Humidity 14    
Precipitation  
Precipitation 0.00 in - - ()
Sea Level Pressure  
Sea Level Pressure 30.03 in    
Wind  
Wind Speed 7 mph (NNW)    
Max Wind Speed 14 mph    
Max Gust Speed 21 mph    
Visibility 10 miles    
Events      
Averages and records for this station are not official NWS values.
T = Trace of Precipitation, MM = Missing Value Source: NWS Daily Summary

Daily Weather History Graph

Daily Weather History Graph

Search for Another Location

Airport:

Trip Planner

Search our weather history database for the weather conditions in past years. The results will help you decide how hot, cold, wet, or windy it might be!

Date:

Astronomy

Jan. 07, 2013 Rise Set
Actual Time 6:59 AM PST 5:00 PM PST
Civil Twilight 6:32 AM PST 5:28 PM PST
Nautical Twilight 6:01 AM PST 5:59 PM PST
Astronomical Twilight 5:31 AM PST 6:29 PM PST
Moon 2:32 AM PST (1/7) 1:13 PM PST (1/7)
Length of Visible Light 10h 55m
Length of Day
10h 00m
Waning Crescent, 21% of the Moon is Illuminated
Jan 7
Waning Crescent
Jan 11
New
Jan 18
First Quarter
Jan 26
Full
Feb 3
Last Quarter

Hourly Weather History & Observations

Time (PST) Temp. Dew Point Humidity Pressure Visibility Wind Dir Wind Speed Gust Speed Precip Events Conditions
12:51 AM 51.1 °F 36.0 °F 56% 30.02 in 10.0 mi NW 6.9 mph - N/A   Clear
1:51 AM 51.1 °F 35.1 °F 54% 30.01 in 10.0 mi Variable 5.8 mph - N/A   Clear
2:51 AM 52.0 °F 34.0 °F 50% 30.02 in 10.0 mi NNW 8.1 mph 16.1 mph N/A   Clear
3:51 AM 51.1 °F 33.1 °F 50% 30.01 in 10.0 mi North 8.1 mph 17.3 mph N/A   Clear
4:51 AM 51.1 °F 33.1 °F 50% 30.01 in 10.0 mi Variable 5.8 mph 17.3 mph N/A   Clear
5:51 AM 51.1 °F 30.9 °F 46% 30.05 in 10.0 mi Variable 6.9 mph - N/A   Clear
6:51 AM 51.1 °F 30.9 °F 46% 30.07 in 10.0 mi NNW 8.1 mph 20.7 mph N/A   Clear
7:51 AM 52.0 °F 33.1 °F 49% 30.10 in 10.0 mi North 9.2 mph 19.6 mph N/A   Clear
8:51 AM 55.9 °F 30.9 °F 39% 30.09 in 10.0 mi North 9.2 mph 18.4 mph N/A   Clear
9:51 AM 61.0 °F 28.9 °F 30% 30.09 in 10.0 mi NNW 6.9 mph - N/A   Clear
10:23 AM 62.6 °F 26.6 °F 26% 30.11 in 10.0 mi Calm Calm - N/A   Clear
10:51 AM 62.1 °F 30.0 °F 30% 30.09 in 10.0 mi SW 9.2 mph - N/A   Clear
11:51 AM 63.0 °F 33.1 °F 33% 30.05 in 10.0 mi WSW 10.4 mph - N/A   Clear
12:51 PM 64.9 °F 32.0 °F 29% 30.01 in 10.0 mi West 9.2 mph 17.3 mph N/A   Clear
1:51 PM 63.0 °F 42.1 °F 46% 29.99 in 10.0 mi WSW 8.1 mph 16.1 mph N/A   Clear
2:51 PM 64.0 °F 39.9 °F 41% 29.98 in 10.0 mi Variable 6.9 mph 17.3 mph N/A   Clear
3:51 PM 66.9 °F 36.0 °F 32% 29.98 in 10.0 mi West 13.8 mph 20.7 mph N/A   Clear
4:51 PM 70.0 °F 18.0 °F 14% 29.98 in 10.0 mi Variable 4.6 mph - N/A   Clear
5:51 PM 66.0 °F 21.0 °F 18% 29.98 in 10.0 mi Variable 4.6 mph - N/A   Clear
6:51 PM 61.0 °F 33.1 °F 35% 30.00 in 10.0 mi East 5.8 mph - N/A   Clear
7:51 PM 55.9 °F 39.9 °F 55% 30.01 in 10.0 mi ENE 4.6 mph - N/A   Clear
8:51 PM 55.0 °F 39.0 °F 55% 30.01 in 10.0 mi ENE 4.6 mph - N/A   Clear
9:51 PM 54.0 °F 39.0 °F 57% 30.02 in 10.0 mi East 4.6 mph - N/A   Clear
11:51 PM 51.1 °F 37.0 °F 59% 30.04 in 10.0 mi Calm Calm - N/A   Clear